Tracking 27122 objects as of 24-Mar-2023
HD Live streaming from Space Station
objects crossing your sky now

ORBCOMM FM 38

Track ORBCOMM FM 38 now!
10-day predictions
ORBCOMM FM 38 is classified as:


NORAD ID: 33060
Int'l Code: 2008-031A
Perigee: 647.6 km
Apogee: 655.6 km
Inclination: 48.4 °
Period: 97.6 minutes
Semi major axis: 7022 km
RCS: 1.1405 m2 (large)
Launch date: June 19, 2008
Source: ORBCOMM (ORB)
Launch site: KAPUSTIN YAR MISSILE AND SPACE COMPLEX (KYMTR)

This spacecraft is one of the 5 ORBCOMM satellites launched on Jun 19, 2008 designed to replenish the company's aging constellation.
Your satellite tracking list
Your tracking list is empty




NASA's NSSDC Master Catalog

Two Line Element Set (TLE):
1 33060U 08031A   23082.67890082  .00003715  00000-0  57336-3 0  9992
2 33060  48.4413 225.2204 0005684 152.3200 207.8016 14.75208894793989
Source of the keplerian elements: AFSPC